CHINASAT 6A (ZX 6A)

Last updated on Oct. 26, 2020, 5:52 a.m. UTC

1 37150U 10042A   20299.93735851 -.00000366  00000-0  00000-0 0  9992
2 37150   0.0196 234.8781 0003266 303.0584 319.3826  1.00271885 37247
UTC
Height (km)
Latitude
Longitude
Inclination
Orbital Period
UTC large
Height (km)
Speed (km/s)
/
Latitude / Longitude
Inclination (degrees)
Orbital Period (minutes)
Azimuth
Elevation
Range (km)
Doppler Factor
iOS Compass Heading
iOS Angle

Next 30 passes for location: Hong Kong

Rise time Rise Azimuth (degrees) Set time Set Azimuth (degrees) Duration Max altitude (degrees)

No matching passes for this satellites